Theta_e
324 323 322 321 320 318 316 315 314 313 312 313 314 315 317 316 315 316 320 324 325 337 350 354 356 355 357 355 350 351 361 347 339 339 336 338 336 338 339 342 342 342 342 342 342
325 324 324 323 321 319 316 316 315 314 312 313 313 315 317 316 315 317 324 324 320 337 353 357 357 354 354 348 342 348 353 346 341 338 338 339 339 339 340 342 342 342 342 342 342
325 324 324 323 322 320 317 316 315 314 312 313 313 315 317 316 317 326 325 322 323 346 354 354 354 349 351 352 349 348 355 343 343 342 341 341 339 340 340 341 340 340 341 341 340
325 324 323 323 323 320 317 315 315 313 313 313 313 314 316 316 334 328 324 321 331 350 352 351 351 352 351 354 352 352 347 344 343 344 342 340 340 339 340 339 339 339 339 340 340
324 323 323 323 323 320 316 315 314 313 313 313 313 315 316 320 327 331 325 321 338 349 346 346 349 350 350 350 350 352 348 347 344 343 342 340 339 340 338 338 338 339 340 341 341
324 323 322 323 322 317 315 314 313 314 313 313 313 315 315 327 329 329 319 324 329 342 344 346 347 347 345 348 347 348 349 347 346 346 345 342 341 340 339 339 340 341 342 342 341
325 323 321 323 318 314 315 316 314 314 313 313 313 315 320 329 328 326 321 323 341 344 345 338 335 342 346 350 348 350 349 350 347 347 347 348 346 342 340 341 342 344 344 344 342
325 324 322 322 316 319 322 320 314 314 314 313 314 315 326 330 329 327 325 329 332 333 338 330 334 339 337 350 351 352 349 356 347 348 348 346 348 343 342 342 342 343 345 344 343
323 324 324 321 317 322 319 313 313 314 313 313 315 320 331 329 328 327 329 329 328 326 329 331 334 337 339 351 353 353 352 353 350 348 350 350 351 347 343 342 342 343 344 345 345
324 324 325 321 319 322 321 320 314 313 313 315 331 329 328 327 326 327 326 326 325 325 327 331 334 336 333 349 356 358 356 351 350 351 352 350 349 347 344 343 343 343 342 344 345
325 325 326 320 319 321 322 325 328 322 317 323 325 328 329 328 325 326 324 324 323 323 323 330 332 333 333 346 347 349 349 351 351 349 351 347 349 352 346 344 341 342 341 343 345
323 324 326 321 319 319 322 326 327 325 326 326 325 326 327 326 326 326 324 323 323 321 324 327 330 331 332 350 348 347 351 353 352 347 346 345 349 350 348 346 343 341 341 342 344
322 323 325 323 320 320 324 326 324 324 325 326 327 325 326 325 325 326 324 323 323 323 323 327 332 333 331 337 336 335 346 353 354 349 347 346 353 350 353 349 345 342 342 342 343
323 322 323 326 329 329 328 326 325 325 324 330 326 325 325 325 324 325 325 324 323 323 324 324 330 333 332 333 331 332 336 343 341 349 354 349 354 352 351 350 347 344 343 343 343
321 323 322 325 325 328 328 326 325 324 332 329 326 325 325 325 326 325 326 325 323 326 326 326 329 330 330 331 331 329 331 332 335 333 336 345 345 348 350 347 345 345 344 344 343
322 320 323 323 326 328 327 326 326 326 333 328 326 326 325 326 326 327 327 326 327 326 326 326 329 328 328 329 329 329 327 327 330 330 332 334 347 354 350 350 353 353 348 345 343
321 318 322 323 331 329 326 326 327 328 330 327 325 325 324 325 325 326 326 325 324 327 326 326 326 326 328 327 325 327 323 323 327 329 333 333 337 347 351 350 351 348 350 347 344
318 317 322 327 325 328 326 327 332 333 334 329 326 325 325 325 325 327 327 326 325 325 325 325 326 326 327 324 324 323 321 321 329 331 334 331 352 353 348 344 341 341 349 349 347
316 318 320 331 327 327 327 330 333 335 333 332 330 327 326 326 327 326 325 326 327 325 324 326 328 329 328 326 323 323 323 321 321 322 323 333 349 347 346 344 344 345 349 351 349
313 321 332 331 328 326 327 328 331 331 331 332 331 330 330 327 326 326 326 326 328 328 325 325 326 327 329 326 324 321 323 323 321 325 328 327 348 347 350 349 347 347 347 349 350
312 323 331 330 327 327 327 328 329 330 331 331 331 329 329 330 330 327 327 328 327 327 326 325 325 326 327 327 324 324 322 323 321 323 323 326 326 331 345 345 344 344 346 346 345
316 327 330 329 329 328 327 328 328 329 329 330 330 329 328 329 329 331 332 330 329 328 326 326 325 326 326 327 326 324 323 321 321 323 326 328 328 343 341 345 346 346 347 345 345
313 320 322 325 328 328 327 327 326 327 329 330 330 329 328 328 329 330 331 331 331 328 326 326 325 325 326 325 326 324 325 324 322 321 322 328 328 343 344 342 346 346 345 345 345
317 324 323 323 326 329 329 328 329 329 327 329 329 329 328 328 329 330 331 331 331 331 329 328 323 325 325 326 328 326 326 324 322 322 324 325 337 347 349 349 349 350 349 350 351
320 322 320 322 322 321 324 325 326 328 331 327 328 330 330 329 330 331 332 332 333 331 327 323 323 325 326 326 327 326 327 326 324 323 324 326 326 343 344 349 349 350 351 353 353
319 321 321 322 320 320 319 320 321 321 323 324 326 327 328 332 331 334 332 332 334 331 330 325 324 327 325 325 325 326 327 327 326 326 325 325 325 339 345 349 351 351 351 355 357
318 317 319 322 322 322 322 323 322 321 321 322 325 329 330 331 330 330 330 331 330 330 330 331 331 327 323 326 325 325 326 327 327 328 326 325 324 328 341 346 348 351 353 358 359
Wind_Speed
12 11 10 9 8 7 6 6 5 4 3 3 3 2 3 3 4 5 4 6 4 5 3 3 6 6 8 19 26 11 4 7 15 15 10 22 12 21 22 28 28 12 31 30 25
13 13 12 10 9 7 7 6 5 4 3 3 3 2 4 3 6 10 6 6 8 4 2 6 16 13 8 11 13 7 3 2 8 10 14 20 19 20 17 28 30 32 31 27 24
14 14 13 12 10 8 7 6 5 4 3 3 3 3 4 3 3 6 8 7 4 6 3 5 13 6 7 18 8 3 5 11 13 17 27 17 22 29 26 17 26 29 30 27 23
15 15 15 13 11 8 7 6 5 3 2 2 3 4 4 2 3 2 6 7 7 9 4 7 6 9 9 12 13 10 7 13 16 21 26 10 23 15 23 24 28 26 26 24 25
16 17 16 14 11 8 7 6 4 2 2 3 4 4 3 3 6 8 5 9 10 12 5 6 12 6 4 5 23 14 7 21 26 19 25 27 21 20 25 28 25 24 23 21 24
18 19 17 15 11 8 6 4 2 2 2 3 4 4 4 4 4 9 6 10 10 8 3 8 12 5 15 7 2 11 16 20 16 22 22 22 19 21 25 25 24 22 22 21 21
19 20 18 15 11 6 4 2 1 1 2 3 4 4 5 6 8 5 8 8 6 1 12 14 13 5 6 4 8 21 11 12 17 12 18 16 8 13 28 25 21 20 23 23 20
19 20 19 14 8 5 4 3 1 1 2 3 4 4 5 3 7 5 8 3 3 7 12 11 13 12 9 10 9 8 8 9 10 11 8 19 4 11 27 27 23 17 16 18 24
22 20 18 13 6 4 3 3 1 1 2 4 4 2 8 9 15 10 8 8 6 9 10 12 13 12 8 11 5 9 2 15 4 11 8 11 6 7 30 26 24 21 19 21 20
20 20 19 12 5 3 2 4 4 3 2 6 5 3 11 10 8 13 13 10 10 8 11 14 10 5 4 4 8 10 6 6 5 4 17 14 13 8 27 29 25 24 21 22 23
20 19 18 13 3 2 3 5 4 1 9 11 8 8 2 8 10 13 11 11 11 11 5 16 4 8 10 16 11 13 6 5 7 7 7 4 11 13 20 24 24 27 25 25 25
21 20 17 13 4 2 2 5 10 9 10 20 22 21 9 13 7 12 13 12 12 7 10 7 9 14 10 16 16 15 14 10 9 7 4 11 14 16 9 20 28 31 29 28 28
21 19 17 11 4 2 6 9 9 10 5 13 24 19 8 12 13 17 19 18 7 8 10 10 13 14 10 1 2 6 13 15 10 12 3 5 5 6 14 16 29 35 34 32 33
21 19 17 8 3 4 10 7 9 9 3 6 12 15 18 9 9 17 21 16 6 11 10 9 18 13 4 4 5 8 7 9 7 16 7 15 4 8 19 14 19 32 35 37 36
21 19 14 12 7 5 8 6 13 4 3 9 10 7 16 14 2 14 19 20 10 8 5 11 11 7 4 5 5 10 9 7 6 8 5 10 5 5 14 5 6 19 31 36 39
21 19 15 11 5 6 9 9 9 1 6 8 8 5 8 15 12 17 17 17 15 8 10 10 22 5 8 8 9 8 7 9 5 2 5 12 4 4 14 9 6 5 35 29 37
20 17 16 9 4 1 3 7 1 3 9 8 7 8 8 9 10 8 8 8 6 3 6 10 11 9 6 4 7 4 4 4 4 2 7 6 6 7 7 16 15 32 42 35 35
20 17 12 9 9 6 4 2 4 9 7 7 11 10 11 10 11 10 9 8 10 9 6 7 8 10 9 9 7 7 8 6 6 3 3 5 2 1 5 20 30 16 24 32 37
21 14 16 4 3 5 8 4 6 4 13 13 2 8 9 10 10 12 10 9 10 11 8 5 7 5 7 6 12 8 4 10 4 5 4 1 3 5 11 4 4 13 8 21 23
22 19 9 7 4 6 2 5 7 12 18 14 10 5 4 12 12 10 11 12 12 14 16 8 8 7 14 12 9 9 7 2 2 2 4 3 5 6 15 14 12 12 14 19 20
16 10 7 15 7 6 4 5 11 24 24 13 7 9 10 10 9 8 13 11 12 15 12 10 8 12 8 4 9 3 5 2 2 3 6 4 6 9 20 20 18 16 21 15 16
6 3 10 7 5 6 5 8 12 24 30 19 6 5 9 12 14 11 10 8 19 13 10 11 6 6 12 14 9 10 9 9 5 8 3 5 6 1 18 18 26 24 26 21 17
14 8 8 9 2 5 9 14 20 16 17 16 5 8 8 9 9 8 14 23 25 7 10 7 4 5 8 9 5 8 6 6 4 4 8 2 6 4 13 11 25 26 25 20 21
7 4 6 9 13 7 6 9 12 22 17 20 9 3 10 13 10 8 11 12 26 18 13 12 5 7 9 9 7 7 9 10 9 3 6 8 6 2 8 14 17 27 26 20 18
4 4 13 5 9 15 14 13 15 17 18 22 10 11 7 7 10 12 15 11 19 17 3 5 8 7 6 7 12 11 9 14 10 10 8 7 7 10 13 16 19 28 23 20 20
8 8 14 17 18 12 9 7 14 16 12 15 12 16 14 5 5 7 13 7 4 13 13 8 5 5 7 7 12 16 17 15 15 14 7 8 11 8 18 26 26 30 27 25 22
10 9 7 11 10 9 8 13 17 16 18 21 16 7 12 9 13 16 18 20 12 8 10 6 5 2 7 5 8 15 5 10 8 5 12 10 12 7 8 20 28 33 32 29 27
Wind_Direction
15 12 6 356 349 343 339 334 330 323 302 277 268 239 255 241 226 209 198 269 302 302 290 191 243 288 247 150 189 194 211 86 106 109 114 96 96 101 123 134 154 149 142 139 140
12 8 5 355 346 340 331 331 324 319 292 261 262 225 242 249 236 227 220 275 286 256 233 304 303 336 261 133 170 192 320 188 140 142 130 141 138 137 109 97 102 115 130 139 145
10 5 0 353 345 340 330 326 317 312 279 271 254 224 227 255 277 245 238 245 241 183 235 310 335 307 22 15 342 181 223 129 150 120 133 132 128 123 118 119 125 131 139 149 154
9 4 357 351 346 340 327 320 310 297 257 252 245 227 230 189 36 304 243 226 198 174 182 359 355 26 30 339 303 305 257 320 127 106 121 124 139 132 127 128 134 139 147 155 163
8 3 357 352 347 339 326 313 302 271 246 235 217 213 210 253 269 303 227 199 184 182 232 297 282 111 79 307 294 210 330 319 118 118 108 103 99 105 112 126 134 143 152 164 165
5 2 359 354 348 337 331 319 286 244 228 223 214 210 203 252 263 294 195 186 179 190 242 282 304 146 145 221 194 339 356 350 13 84 100 108 115 116 124 132 144 155 165 171 162
4 1 359 355 348 356 9 1 314 267 221 210 207 207 219 241 291 296 186 177 148 226 282 303 337 317 219 322 77 23 3 354 39 34 107 103 75 125 137 141 155 174 180 172 166
5 1 359 354 357 16 12 2 2 188 197 194 192 198 237 188 249 281 179 222 253 271 268 296 321 302 302 77 24 40 32 333 40 18 72 13 191 144 147 151 169 183 167 152 152
3 2 0 357 6 9 31 41 82 151 178 171 150 230 278 230 209 216 209 224 239 257 265 281 293 275 159 117 51 49 328 289 299 51 25 12 280 166 155 161 176 178 154 151 155
2 359 0 1 3 14 39 47 55 96 151 159 174 276 233 237 210 198 200 220 242 261 276 251 265 240 263 167 167 173 165 245 276 56 43 340 336 199 166 168 174 173 163 166 160
360 358 357 355 347 314 278 312 332 155 203 210 204 228 167 201 183 197 195 212 243 254 251 270 254 256 264 170 166 166 147 168 226 164 92 65 315 278 188 169 167 169 169 173 169
356 355 355 350 321 287 296 318 357 323 291 261 256 262 247 154 174 206 191 205 227 233 238 288 241 255 275 142 158 159 149 191 300 174 134 164 201 248 294 183 172 165 174 179 175
353 353 350 348 329 305 308 320 344 340 279 276 234 226 206 176 216 206 194 206 206 230 245 225 252 255 283 109 133 264 182 190 207 191 81 188 261 157 266 235 178 172 177 181 181
349 350 347 346 339 301 290 17 323 319 308 259 188 224 215 192 245 226 189 200 241 209 235 249 260 268 79 326 320 274 300 200 211 139 198 214 241 167 212 223 188 171 178 181 183
344 341 350 336 303 273 355 349 328 292 315 126 173 197 190 184 175 218 185 212 239 247 206 251 269 283 277 240 266 265 320 324 358 347 330 218 235 219 175 229 223 175 181 185 184
337 332 333 319 276 355 335 324 305 324 247 183 135 173 154 207 268 163 170 207 244 273 286 261 274 287 228 260 222 284 333 344 344 262 320 268 126 229 189 178 83 357 269 187 182
330 325 310 296 164 356 360 304 301 228 152 149 164 175 217 203 239 170 179 190 212 222 275 291 278 273 282 338 332 234 343 341 332 301 225 294 299 227 140 146 157 193 211 183 184
330 324 298 288 240 255 338 307 249 278 272 171 157 182 182 214 210 230 180 206 218 246 282 214 281 220 214 187 190 251 176 174 224 223 319 297 124 118 163 170 174 179 174 182 187
330 322 293 120 155 143 263 235 223 220 355 342 291 176 192 211 218 209 200 205 215 197 207 305 254 305 236 160 155 252 260 218 262 299 356 212 340 52 143 169 171 157 214 145 193
330 333 323 157 182 153 219 258 288 336 311 312 323 310 284 206 202 211 197 206 219 218 195 238 286 285 308 166 188 171 233 320 314 276 283 221 221 197 172 184 188 175 136 130 134
334 331 116 147 174 210 225 253 295 300 308 319 297 309 311 320 321 249 214 217 200 219 208 197 184 272 322 230 169 185 257 264 163 163 191 257 265 203 179 163 160 160 162 157 161
8 292 156 178 209 223 237 259 271 280 286 289 285 271 294 304 310 315 315 292 205 219 197 211 190 221 245 264 202 189 195 194 149 280 239 168 279 258 164 158 163 161 163 167 170
341 275 243 209 237 267 281 291 300 295 283 281 286 307 307 294 288 292 303 305 310 293 178 195 257 236 310 309 254 177 210 223 228 186 248 173 284 151 137 132 138 141 149 157 166
346 307 338 194 227 275 317 312 321 304 301 328 304 331 311 301 304 288 293 301 303 312 316 173 170 181 217 225 237 201 206 211 204 197 228 229 166 139 110 130 136 141 142 136 130
335 335 357 316 339 335 329 323 314 316 332 336 331 317 250 275 306 303 305 320 325 308 242 200 211 212 245 279 276 278 251 211 202 217 202 252 198 205 180 160 146 138 136 136 138
339 357 341 307 303 322 314 300 298 297 299 300 299 303 309 10 25 346 349 359 294 330 346 323 248 207 257 279 286 290 286 272 228 217 241 241 264 179 186 146 142 151 157 149 155
320 320 343 286 306 295 287 296 301 308 307 303 298 1 328 24 359 328 315 317 299 297 313 319 7 286 242 259 301 277 245 270 286 241 204 210 236 181 182 155 157 158 162 156 164